User: anonymous   Login
Location: Goettingen
(51.5300°N, 9.9433°E)
Time: 17:50:56
(UTC+02:00)
Language:

ICEYE-X32 - Orbit

View from above orbital plane
View from above orbital plane
View from above satellite
View from above satellite

Ground track
Ground track

The orbit data is extracted from the following two-line orbital elements,

1 58293U 23174AP  24194.48608358  .00022991  00000-0  93812-3 0  9995
2 58293  97.4551 269.4453 0010530 137.5983 222.6070 15.24377124 37597
Epoch (UTC): 12 July 2024 11:39:57
Eccentricity: 0.0010530
inclination: 97.4551°
perigee height: 485 km
apogee height: 500 km
right ascension of ascending node: 269.4453°
argument of perigee: 137.5983°
revolutions per day: 15.24377124
mean anomaly at epoch: 222.6070°
orbit number at epoch: 3759

The dashed part of the orbit path shows where the satellite is in the earth's shadow,  

DLR